Main page
METAR-TAF:

METAR-TAF

Airports :

Boulmer, England

RAF Boulmer

latitude: 55-25-19N, longitude: 1-36-12W, elevation: 24 m

Current weather observation

The report was made 16 minutes ago, at 01:50 UTC
Wind 17 kt from the North with gusts up to 27 kt
Temperature 11°C
Humidity 94%
Pressure 997 hPa
Visibility: 4900 m
rain

METAR: EGQM 290150Z AUTO 01017G27KT 4900 RA BKN004/// BKN011/// 11/10 Q0997

Time: 03:06 (02:06 UTC)


TAF: missing

Weather observations and forecasts of more than 4000 airports (METAR and TAF reports).

The available stations are represented by yellow and red dots on the map.

Hover mouse over dot to see the name of the station.

Then click to see weather observations and forecasts.

To change the map : click on the green buttons with a black cross to zoom in, on the green button with a dash to zoom out, or on the green arrows for adjacent maps.


METAR-TAF: